N1JFY Weather Reports


Display with metric or nautical units.
time (UTC)temp
F
wind
direction
speed
MPH
gust
MPH
rain 1hr
in
rain 24hr
in
rain mn
in
humidity
%
barometer
mb
20260901060014 47 0.0 0.0 0.00 0.00 0.00 92 1016.9
20260901054507 47 0.0 0.0 0.00 0.00 0.00 92 1017.0
20260901053002 47 0.0 0.0 0.00 0.00 0.00 91 1017.0
20260901051606 47 0.0 0.0 0.00 0.00 0.00 91 1016.8
20260901050059 48 0.0 0.0 0.00 0.00 0.00 90 1016.9
20260901044609 48 0.0 0.0 0.00 0.00 0.00 90 1016.8
20260901043046 49 0.0 0.0 0.00 0.00 0.00 90 1016.7
20260901041542 49 0.0 0.0 0.00 0.00 0.00 89 1016.6
20260901040038 50 0.0 0.0 0.00 0.00 0.00 89 1016.6
20260901034535 50 0.0 0.0 0.00 0.00 0.00 89 1016.6
20260901033034 50 0.0 0.0 0.00 0.00 0.00 88 1016.7
20260901031533 51 0.0 0.0 0.00 0.00 0.00 87 1016.7
20260901030041 51 0.0 0.0 0.00 0.00 0.00 88 1016.7
20260901024532 51 0.0 0.0 0.00 0.00 0.00 88 1016.7
20260901023034 51 0.0 0.0 0.00 0.00 0.00 88 1016.5
20260901021530 51 0.0 0.0 0.00 0.00 0.00 88 1016.5
20260901020030 52 0.0 0.0 0.00 0.00 0.00 88 1016.5
20260901014531 52 0.0 0.0 0.00 0.00 0.00 87 1016.4
20260901013028 53 0.0 0.0 0.00 0.00 0.00 86 1016.5
20260901011527 54 0.0 0.0 0.00 0.00 0.00 85 1016.3
20260901010028 54 0.0 0.0 0.00 0.00 0.00 84 1016.3
20260901004532 55 0.0 0.0 0.00 0.00 0.00 83 1016.3
20260901003031 56 0.0 0.0 0.00 0.00 0.00 80 1016.1
20260901001528 58 0.0 0.0 0.00 0.00 0.00 77 1015.9
20260901000025 59 0.0 0.0 0.00 0.00 0.00 73 1015.8
20260831234524 60 0.0 0.0 0.00 0.00 0.00 70 1015.6
20260831233023 62 0.0 0.0 0.00 0.00 0.00 68 1015.6
20260831231525 63 0.0 0.0 0.00 0.00 0.00 66 1015.6
20260831230022 65 0.0 0.0 0.00 0.00 0.00 64 1015.6
20260831224522 66 0.0 0.0 0.00 0.00 0.00 60 1015.5
20260831223022 66 0.0 0.0 0.00 0.00 0.00 60 1015.5
20260831221531 68 0.0 0.0 0.00 0.00 0.00 59 1015.2
20260831220021 69 0.0 0.0 0.00 0.00 0.00 54 1015.2
20260831214538 69 0.0 0.0 0.00 0.00 0.00 52 1015.0
20260831213020 70 0.0 0.0 0.00 0.00 0.00 51 1014.9
20260831211522 71 0.0 0.0 0.00 0.00 0.00 51 1014.8
20260831210019 71 0.0 0.0 0.00 0.00 0.00 51 1014.9
20260831204518 71 0.0 0.0 0.00 0.00 0.00 51 1014.8
20260831203018 71 0.0 0.0 0.00 0.00 0.00 49 1014.9
20260831201527 72 0.0 0.0 0.00 0.00 0.00 50 1014.9
20260831200030 71 0.0 0.0 0.00 0.00 0.00 50 1015.0
20260831194513 71 0.0 0.0 0.00 0.00 0.00 51 1015.1
20260831193011 71 0.0 0.0 0.00 0.00 0.00 49 1015.1
20260831191510 71 0.0 0.0 0.00 0.00 0.00 51 1015.3
20260831190011 70 0.0 0.0 0.00 0.00 0.00 52 1015.3
20260831184511 70 0.0 0.0 0.00 0.00 0.00 52 1015.4
20260831183006 70 0.0 0.0 0.00 0.00 0.00 51 1015.4
20260831181504 70 0.0 0.0 0.00 0.00 0.00 52 1015.5
20260831180002 69 0.0 0.0 0.00 0.00 0.00 52 1015.5
20260831174501 69 0.0 0.0 0.00 0.00 0.00 53 1015.6
20260831173059 69 0.0 0.0 0.00 0.00 0.00 54 1015.5
20260831171556 68 0.0 0.0 0.00 0.00 0.00 54 1015.5
20260831170054 68 0.0 0.0 0.00 0.00 0.00 56 1015.6
20260831164604 68 0.0 0.0 0.00 0.00 0.00 55 1015.5
20260831163051 67 0.0 0.0 0.00 0.00 0.00 54 1015.6
20260831161549 67 0.0 0.0 0.00 0.00 0.00 55 1015.6
20260831160048 66 0.0 0.0 0.00 0.00 0.00 55 1015.7
20260831154550 66 0.0 0.0 0.00 0.00 0.00 60 1015.9
20260831153043 65 0.0 0.0 0.00 0.00 0.00 60 1016.0
20260831151541 65 0.0 0.0 0.00 0.00 0.00 60 1016.2
20260831150040 64 0.0 0.0 0.00 0.00 0.00 61 1016.3
20260831144537 63 0.0 0.0 0.00 0.00 0.00 64 1016.5
20260831143035 62 0.0 0.0 0.00 0.00 0.00 63 1016.6
20260831141535 62 0.0 0.0 0.00 0.00 0.00 64 1016.7
20260831140039 61 0.0 0.0 0.00 0.00 0.00 65 1016.7
20260831134528 60 0.0 0.0 0.00 0.00 0.00 67 1016.6
20260831133026 60 0.0 0.0 0.00 0.00 0.00 67 1016.6
20260831131535 59 0.0 0.0 0.00 0.00 0.00 68 1016.3
20260831130034 59 0.0 0.0 0.00 0.00 0.00 69 1016.3
20260831124519 58 0.0 0.0 0.00 0.00 0.00 71 1016.1
20260831123015 57 0.0 0.0 0.00 0.00 0.00 74 1016.4
20260831121513 56 0.0 0.0 0.00 0.00 0.00 75 1016.5
20260831120010 55 0.0 0.0 0.00 0.00 0.00 75 1016.4
20260831114508 54 0.0 0.0 0.00 0.00 0.00 76 1016.3
20260831113007 53 0.0 0.0 0.00 0.00 0.00 77 1016.0
20260831111512 53 0.0 0.0 0.00 0.00 0.00 77 1015.9
20260831110006 53 0.0 0.0 0.00 0.00 0.00 77 1015.6
20260831104502 52 0.0 0.0 0.00 0.00 0.00 78 1015.5
20260831103113 52 0.0 0.0 0.00 0.00 0.00 78 1015.4
20260831101603 52 0.0 0.0 0.00 0.00 0.00 79 1015.2
20260831100059 51 0.0 0.0 0.00 0.00 0.00 80 1015.0
20260831094600 51 0.0 0.0 0.00 0.00 0.00 81 1015.1
20260831093055 51 0.0 0.0 0.00 0.00 0.00 80 1015.0
20260831091554 51 0.0 0.0 0.00 0.00 0.00 80 1014.8
20260831090104 52 0.0 0.0 0.00 0.00 0.00 80 1014.8
20260831084549 52 0.0 0.0 0.00 0.00 0.00 79 1014.6
20260831083050 52 0.0 0.0 0.00 0.00 0.00 79 1014.7
20260831081557 52 0.0 0.0 0.00 0.00 0.00 79 1014.6
20260831080047 52 0.0 0.0 0.00 0.00 0.00 79 1014.6
20260831074545 52 0.0 0.0 0.00 0.00 0.00 79 1014.5
20260831073044 52 0.0 0.0 0.00 0.00 0.00 80 1014.4
20260831071545 52 0.0 0.0 0.00 0.00 0.00 80 1014.4
20260831070041 53 0.0 0.0 0.00 0.00 0.00 80 1014.4
20260831064539 53 0.0 0.0 0.00 0.00 0.00 79 1014.2
20260831063037 53 0.0 0.0 0.00 0.00 0.00 79 1014.2
20260831061536 53 0.0 0.0 0.00 0.00 0.00 80 1013.9